Location: Absher
(46.5583°N, 107.9840°W)
Time: 14:10:56
(UTC+00:00)

Tiangong - Pass Details

Date: 05 December 2022
Orbit: 383 x 387 km, 41.5° (Epoch: 27 January)

Event Time Altitude Azimuth Distance (km) Brightness Sun altitude
Rises 23:58:29 0° 234° (SW) 2,251 4.0 -5.8°
Reaches altitude 10° 00:00:48 10° 219° (SW) 1,402 1.9 -6.2°
Maximum altitude 00:03:22 23° 165° (SSE) 878 -0.2 -6.6°
Drops below altitude 10° 00:05:57 10° 110° (ESE) 1,411 0.3 -7.0°
Enters shadow 00:07:04 - 101° (E) 1,807 0.8 -7.1°
